| time (UTC) | temp C | wind direction | speed KPH | gust KPH | rain 1hr cm | rain 24hr cm | rain mn cm | humidity % | barometer mb |
| 20260506122958 | 14 | 237 | 0.0 | 0.0 | 0.00 | 0.00 | 0.00 | 92 | 1011.4 |
| 20260506122455 | 14 | 44 | 1.6 | 1.6 | 0.00 | 0.00 | 0.00 | 92 | 1011.7 |
| 20260506121953 | 13 | 52 | 0.0 | 0.0 | 0.00 | 0.00 | 0.00 | 92 | 1011.7 |
| 20260506121450 | 13 | 122 | 0.0 | 0.0 | 0.00 | 0.00 | 0.00 | 92 | 1011.9 |
| 20260506120946 | 13 | 220 | 0.0 | 0.0 | 0.00 | 0.00 | 0.00 | 92 | 1012.0 |
| 20260506120444 | 13 | 239 | 1.6 | 1.6 | 0.00 | 0.00 | 0.00 | 92 | 1012.0 |
| 20260506115941 | 14 | 222 | 0.0 | 1.6 | 0.00 | 0.00 | 0.00 | 92 | 1012.2 |
| 20260506115439 | 13 | 204 | 0.0 | 0.0 | 0.00 | 0.00 | 0.00 | 92 | 1012.1 |
| 20260506114937 | 13 | 241 | 0.0 | 0.0 | 0.00 | 0.00 | 0.00 | 93 | 1012.1 |
| 20260506114434 | 13 | 348 | 0.0 | 1.6 | 0.00 | 0.00 | 0.00 | 93 | 1011.9 |
| 20260506113933 | 13 | 210 | 0.0 | 0.0 | 0.00 | 0.00 | 0.00 | 93 | 1011.8 |
| 20260506113430 | 13 | 221 | 0.0 | 0.0 | 0.00 | 0.00 | 0.00 | 94 | 1011.8 |
| 20260506112926 | 13 | 74 | 1.6 | 3.2 | 0.00 | 0.00 | 0.00 | 94 | 1011.9 |
| 20260506112424 | 13 | 244 | 0.0 | 0.0 | 0.00 | 0.00 | 0.00 | 95 | 1011.9 |
| 20260506111921 | 13 | 238 | 0.0 | 0.0 | 0.00 | 0.00 | 0.00 | 95 | 1012.0 |
| 20260506111419 | 12 | 358 | 1.6 | 3.2 | 0.00 | 0.00 | 0.00 | 95 | 1011.9 |
| 20260506110916 | 12 | 213 | 0.0 | 0.0 | 0.00 | 0.00 | 0.00 | 95 | 1012.0 |
| 20260506110414 | 12 | 89 | 1.6 | 1.6 | 0.00 | 0.00 | 0.00 | 95 | 1012.1 |
| 20260506105910 | 12 | 240 | 0.0 | 0.0 | 0.00 | 0.00 | 0.00 | 95 | 1012.4 |
| 20260506105407 | 12 | 207 | 0.0 | 0.0 | 0.00 | 0.00 | 0.00 | 95 | 1012.1 |
| 20260506104904 | 12 | 203 | 0.0 | 0.0 | 0.00 | 0.00 | 0.00 | 95 | 1012.1 |
| 20260506104402 | 12 | 110 | 3.2 | 3.2 | 0.00 | 0.00 | 0.00 | 95 | 1011.8 |
| 20260506103900 | 12 | 30 | 3.2 | 3.2 | 0.00 | 0.00 | 0.00 | 96 | 1012.1 |
| 20260506103357 | 12 | 217 | 1.6 | 3.2 | 0.00 | 0.00 | 0.00 | 96 | 1011.8 |
| 20260506102854 | 12 | 121 | 1.6 | 3.2 | 0.00 | 0.00 | 0.00 | 96 | 1011.9 |
| 20260506102352 | 12 | 207 | 0.0 | 0.0 | 0.00 | 0.00 | 0.00 | 96 | 1011.8 |
| 20260506101849 | 12 | 161 | 0.0 | 0.0 | 0.00 | 0.00 | 0.00 | 96 | 1011.7 |
| 20260506101345 | 12 | 145 | 1.6 | 1.6 | 0.00 | 0.00 | 0.00 | 96 | 1011.8 |
| 20260506100843 | 12 | 121 | 0.0 | 1.6 | 0.00 | 0.00 | 0.00 | 96 | 1011.7 |
| 20260506100341 | 12 | 215 | 0.0 | 0.0 | 0.00 | 0.00 | 0.00 | 97 | 1012.0 |
| 20260506095839 | 12 | 271 | 0.0 | 0.0 | 0.00 | 0.00 | 0.00 | 97 | 1012.0 |
| 20260506095336 | 11 | 156 | 0.0 | 0.0 | 0.00 | 0.00 | 0.00 | 97 | 1012.0 |
| 20260506094833 | 11 | 179 | 3.2 | 3.2 | 0.00 | 0.00 | 0.00 | 97 | 1011.7 |
| 20260506094332 | 11 | 243 | 0.0 | 0.0 | 0.00 | 0.00 | 0.00 | 97 | 1011.7 |
| 20260506093829 | 11 | 179 | 0.0 | 0.0 | 0.00 | 0.00 | 0.00 | 97 | 1011.7 |
| 20260506093326 | 11 | 169 | 0.0 | 1.6 | 0.00 | 0.00 | 0.00 | 97 | 1011.8 |
| 20260506092824 | 11 | 197 | 1.6 | 1.6 | 0.00 | 0.00 | 0.00 | 96 | 1011.7 |
| 20260506092321 | 11 | 188 | 0.0 | 0.0 | 0.00 | 0.00 | 0.00 | 96 | 1011.9 |
| 20260506091818 | 11 | 65 | 1.6 | 3.2 | 0.00 | 0.00 | 0.00 | 96 | 1011.9 |
| 20260506091316 | 11 | 229 | 0.0 | 0.0 | 0.00 | 0.00 | 0.00 | 95 | 1011.8 |
| 20260506090813 | 12 | 130 | 0.0 | 1.6 | 0.00 | 0.00 | 0.00 | 95 | 1011.9 |
| 20260506090310 | 12 | 95 | 1.6 | 1.6 | 0.00 | 0.00 | 0.00 | 95 | 1011.8 |
| 20260506085807 | 12 | 105 | 1.6 | 3.2 | 0.00 | 0.00 | 0.00 | 95 | 1011.9 |
| 20260506085305 | 12 | 150 | 0.0 | 0.0 | 0.00 | 0.00 | 0.00 | 95 | 1011.9 |
| 20260506084800 | 12 | 188 | 0.0 | 0.0 | 0.00 | 0.00 | 0.00 | 94 | 1012.0 |
| 20260506084256 | 12 | 160 | 0.0 | 0.0 | 0.00 | 0.00 | 0.00 | 94 | 1012.0 |
| 20260506083753 | 12 | 224 | 0.0 | 0.0 | 0.00 | 0.00 | 0.00 | 94 | 1012.1 |
| 20260506083251 | 12 | 173 | 0.0 | 1.6 | 0.00 | 0.00 | 0.00 | 93 | 1012.1 |
| 20260506082748 | 12 | 201 | 1.6 | 3.2 | 0.00 | 0.00 | 0.00 | 93 | 1012.2 |
| 20260506082243 | 12 | 122 | 0.0 | 0.0 | 0.00 | 0.00 | 0.00 | 92 | 1012.0 |
| 20260506081741 | 12 | 232 | 3.2 | 4.8 | 0.00 | 0.00 | 0.00 | 92 | 1012.1 |
| 20260506081239 | 12 | 46 | 0.0 | 1.6 | 0.00 | 0.00 | 0.00 | 92 | 1011.9 |
| 20260506080737 | 12 | 203 | 0.0 | 0.0 | 0.00 | 0.00 | 0.00 | 91 | 1012.0 |
| 20260506080233 | 12 | 140 | 0.0 | 1.6 | 0.00 | 0.00 | 0.00 | 91 | 1012.0 |
| 20260506073217 | 13 | 140 | 0.0 | 0.0 | 0.00 | 0.00 | 0.00 | 88 | 1011.8 |
| 20260506072714 | 13 | 182 | 3.2 | 4.8 | 0.00 | 0.00 | 0.00 | 88 | 1011.8 |
| 20260506072211 | 13 | 133 | 3.2 | 4.8 | 0.00 | 0.00 | 0.00 | 87 | 1012.1 |
| 20260506071709 | 13 | 210 | 1.6 | 3.2 | 0.00 | 0.00 | 0.00 | 86 | 1012.2 |
| 20260506071207 | 13 | 71 | 4.8 | 4.8 | 0.00 | 0.00 | 0.00 | 86 | 1012.1 |
| 20260506070703 | 13 | 33 | 0.0 | 1.6 | 0.00 | 0.00 | 0.00 | 85 | 1012.0 |
| 20260506070200 | 13 | 156 | 1.6 | 1.6 | 0.00 | 0.00 | 0.00 | 84 | 1012.4 |
| 20260506062137 | 15 | 231 | 0.0 | 0.0 | 0.00 | 0.00 | 0.00 | 79 | 1012.3 |
| 20260506061633 | 15 | 238 | 0.0 | 0.0 | 0.00 | 0.00 | 0.00 | 79 | 1012.0 |
| 20260506061131 | 15 | 208 | 0.0 | 0.0 | 0.00 | 0.00 | 0.00 | 79 | 1012.0 |
| 20260506060629 | 15 | 221 | 0.0 | 0.0 | 0.00 | 0.00 | 0.00 | 79 | 1012.1 |
| 20260506060126 | 15 | 93 | 0.0 | 0.0 | 0.00 | 0.00 | 0.00 | 79 | 1012.1 |
| 20260506051058 | 15 | 201 | 0.0 | 0.0 | 0.00 | 0.00 | 0.00 | 78 | 1012.7 |
| 20260506050556 | 15 | 222 | 1.6 | 3.2 | 0.00 | 0.00 | 0.00 | 77 | 1012.8 |
| 20260506045046 | 16 | 87 | 0.0 | 0.0 | 0.00 | 0.00 | 0.00 | 76 | 1012.7 |
| 20260506044544 | 16 | 36 | 3.2 | 4.8 | 0.00 | 0.00 | 0.00 | 76 | 1012.8 |
| 20260506044041 | 16 | 200 | 0.0 | 0.0 | 0.00 | 0.00 | 0.00 | 76 | 1012.8 |
| 20260506043538 | 16 | 175 | 0.0 | 0.0 | 0.00 | 0.00 | 0.00 | 76 | 1012.7 |
| 20260506043036 | 16 | 36 | 0.0 | 0.0 | 0.00 | 0.00 | 0.00 | 76 | 1012.6 |
| 20260506042535 | 16 | 186 | 0.0 | 0.0 | 0.00 | 0.00 | 0.00 | 75 | 1012.4 |
| 20260506042032 | 16 | 80 | 0.0 | 0.0 | 0.00 | 0.00 | 0.00 | 75 | 1012.4 |
| 20260506041531 | 16 | 210 | 0.0 | 1.6 | 0.00 | 0.00 | 0.00 | 75 | 1012.7 |
| 20260506041027 | 16 | 57 | 0.0 | 1.6 | 0.00 | 0.00 | 0.00 | 75 | 1012.7 |
| 20260506040525 | 16 | 25 | 0.0 | 1.6 | 0.00 | 0.00 | 0.00 | 75 | 1012.7 |
| 20260506040021 | 16 | 228 | 0.0 | 0.0 | 0.00 | 0.00 | 0.00 | 74 | 1012.7 |
| 20260506035518 | 16 | 62 | 1.6 | 1.6 | 0.00 | 0.00 | 0.00 | 74 | 1012.5 |
| 20260506035015 | 16 | 222 | 0.0 | 0.0 | 0.00 | 0.00 | 0.00 | 74 | 1012.6 |
| 20260506034512 | 16 | 96 | 3.2 | 4.8 | 0.00 | 0.00 | 0.00 | 74 | 1012.4 |
| 20260506034009 | 16 | 241 | 0.0 | 0.0 | 0.00 | 0.00 | 0.00 | 73 | 1012.7 |
| 20260506033507 | 16 | 60 | 0.0 | 0.0 | 0.00 | 0.00 | 0.00 | 73 | 1012.4 |
| 20260506033004 | 16 | 216 | 0.0 | 0.0 | 0.00 | 0.00 | 0.00 | 73 | 1012.8 |
| 20260506032501 | 16 | 232 | 0.0 | 0.0 | 0.00 | 0.00 | 0.00 | 73 | 1012.6 |
| 20260506031956 | 16 | 318 | 0.0 | 0.0 | 0.00 | 0.00 | 0.00 | 73 | 1012.5 |
| 20260506031455 | 16 | 261 | 0.0 | 0.0 | 0.00 | 0.00 | 0.00 | 72 | 1012.7 |
| 20260506030952 | 16 | 54 | 1.6 | 3.2 | 0.00 | 0.00 | 0.00 | 73 | 1012.6 |
| 20260506030450 | 16 | 167 | 0.0 | 0.0 | 0.00 | 0.00 | 0.00 | 74 | 1012.7 |
| 20260506025946 | 16 | 246 | 1.6 | 3.2 | 0.00 | 0.00 | 0.00 | 73 | 1012.8 |
| 20260506025443 | 16 | 295 | 0.0 | 0.0 | 0.00 | 0.00 | 0.00 | 73 | 1012.6 |
| 20260506024940 | 16 | 133 | 0.0 | 0.0 | 0.00 | 0.00 | 0.00 | 74 | 1012.4 |
| 20260506024437 | 16 | 194 | 0.0 | 0.0 | 0.00 | 0.00 | 0.00 | 74 | 1012.3 |
| 20260506023932 | 16 | 233 | 0.0 | 0.0 | 0.00 | 0.00 | 0.00 | 73 | 1012.5 |
| 20260506023430 | 16 | 113 | 4.8 | 6.4 | 0.00 | 0.00 | 0.00 | 73 | 1012.6 |
| 20260506022926 | 16 | 212 | 0.0 | 0.0 | 0.00 | 0.00 | 0.00 | 73 | 1012.5 |
| 20260506022424 | 16 | 316 | 1.6 | 1.6 | 0.00 | 0.00 | 0.00 | 72 | 1012.5 |
| 20260506021922 | 16 | 119 | 0.0 | 0.0 | 0.00 | 0.00 | 0.00 | 72 | 1012.5 |
| 20260506021419 | 16 | 6 | 0.0 | 1.6 | 0.00 | 0.00 | 0.00 | 72 | 1012.6 |
| 20260506020915 | 16 | 183 | 0.0 | 0.0 | 0.00 | 0.00 | 0.00 | 72 | 1012.4 |
| 20260506020414 | 16 | 299 | 3.2 | 4.8 | 0.00 | 0.00 | 0.00 | 71 | 1012.5 |
| 20260506015910 | 17 | 15 | 0.0 | 0.0 | 0.00 | 0.00 | 0.00 | 71 | 1012.5 |
| 20260506015408 | 17 | 198 | 4.8 | 4.8 | 0.00 | 0.00 | 0.00 | 70 | 1012.5 |
| 20260506014904 | 17 | 205 | 0.0 | 0.0 | 0.00 | 0.00 | 0.00 | 70 | 1012.6 |
| 20260506014402 | 17 | 210 | 0.0 | 0.0 | 0.00 | 0.00 | 0.00 | 68 | 1012.3 |
| 20260506013858 | 17 | 218 | 0.0 | 0.0 | 0.00 | 0.00 | 0.00 | 68 | 1012.4 |
| 20260506013356 | 17 | 198 | 0.0 | 0.0 | 0.00 | 0.00 | 0.00 | 67 | 1012.2 |
| 20260506012852 | 18 | 228 | 0.0 | 0.0 | 0.00 | 0.00 | 0.00 | 66 | 1012.0 |
| 20260506012349 | 18 | 208 | 0.0 | 0.0 | 0.00 | 0.00 | 0.00 | 65 | 1012.0 |
| 20260506011846 | 18 | 106 | 1.6 | 3.2 | 0.00 | 0.00 | 0.00 | 64 | 1011.9 |
| 20260506011343 | 18 | 226 | 0.0 | 0.0 | 0.00 | 0.00 | 0.00 | 63 | 1011.8 |
| 20260506010840 | 18 | 213 | 0.0 | 0.0 | 0.00 | 0.00 | 0.00 | 63 | 1011.8 |
| 20260506010338 | 18 | 210 | 0.0 | 0.0 | 0.00 | 0.00 | 0.00 | 64 | 1011.8 |
| 20260506005835 | 18 | 157 | 1.6 | 3.2 | 0.00 | 0.00 | 0.00 | 61 | 1011.7 |
| 20260506005331 | 18 | 187 | 0.0 | 0.0 | 0.00 | 0.00 | 0.00 | 62 | 1011.5 |
| 20260506004827 | 18 | 239 | 0.0 | 0.0 | 0.00 | 0.00 | 0.00 | 63 | 1011.8 |
| 20260506004325 | 18 | 163 | 1.6 | 1.6 | 0.00 | 0.00 | 0.00 | 62 | 1011.7 |
| 20260506003821 | 18 | 222 | 0.0 | 0.0 | 0.00 | 0.00 | 0.00 | 63 | 1011.6 |
| 20260506003318 | 18 | 52 | 0.0 | 1.6 | 0.00 | 0.00 | 0.00 | 62 | 1011.5 |
| 20260506002814 | 18 | 166 | 0.0 | 0.0 | 0.00 | 0.00 | 0.00 | 63 | 1011.5 |
| 20260506002311 | 18 | 16 | 0.0 | 0.0 | 0.00 | 0.00 | 0.00 | 62 | 1011.4 |
| 20260506001806 | 18 | 237 | 0.0 | 0.0 | 0.00 | 0.00 | 0.00 | 63 | 1011.5 |
| 20260506001304 | 18 | 212 | 0.0 | 0.0 | 0.00 | 0.00 | 0.00 | 63 | 1011.4 |
| 20260506000801 | 18 | 178 | 1.6 | 1.6 | 0.00 | 0.00 | 0.00 | 62 | 1011.3 |
| 20260506000258 | 19 | 102 | 0.0 | 0.0 | 0.00 | 0.00 | 0.00 | 62 | 1011.3 |
| 20260505235755 | 19 | 128 | 3.2 | 4.8 | 0.00 | 0.00 | 0.00 | 60 | 1011.1 |
| 20260505235253 | 20 | 191 | 1.6 | 3.2 | 0.00 | 0.00 | 0.00 | 60 | 1011.2 |
| 20260505234749 | 20 | 159 | 0.0 | 0.0 | 0.00 | 0.00 | 0.00 | 59 | 1010.9 |
| 20260505234247 | 20 | 171 | 0.0 | 1.6 | 0.00 | 0.00 | 0.00 | 59 | 1011.1 |
| 20260505233743 | 20 | 68 | 0.0 | 1.6 | 0.00 | 0.00 | 0.00 | 59 | 1010.7 |
| 20260505233241 | 20 | 178 | 0.0 | 0.0 | 0.00 | 0.00 | 0.00 | 59 | 1010.9 |
| 20260505232738 | 20 | 120 | 0.0 | 1.6 | 0.00 | 0.00 | 0.00 | 59 | 1011.0 |
| 20260505232236 | 20 | 226 | 0.0 | 0.0 | 0.00 | 0.00 | 0.00 | 58 | 1010.6 |
| 20260505231732 | 20 | 155 | 3.2 | 4.8 | 0.00 | 0.00 | 0.00 | 57 | 1010.9 |
| 20260505231231 | 20 | 225 | 0.0 | 0.0 | 0.00 | 0.00 | 0.00 | 57 | 1010.6 |
| 20260505230729 | 20 | 203 | 0.0 | 0.0 | 0.00 | 0.00 | 0.00 | 57 | 1010.3 |
| 20260505230225 | 21 | 233 | 0.0 | 0.0 | 0.00 | 0.00 | 0.00 | 56 | 1010.4 |
| 20260505225722 | 21 | 359 | 3.2 | 4.8 | 0.00 | 0.00 | 0.00 | 55 | 1010.2 |
| 20260505225219 | 21 | 221 | 3.2 | 3.2 | 0.00 | 0.00 | 0.00 | 56 | 1010.3 |
| 20260505224714 | 21 | 125 | 3.2 | 4.8 | 0.00 | 0.00 | 0.00 | 55 | 1010.0 |
| 20260505224212 | 21 | 68 | 8.0 | 14.5 | 0.00 | 0.00 | 0.00 | 55 | 1010.3 |
| 20260505223710 | 21 | 163 | 3.2 | 3.2 | 0.00 | 0.00 | 0.00 | 55 | 1010.2 |
| 20260505223205 | 21 | 148 | 1.6 | 1.6 | 0.00 | 0.00 | 0.00 | 55 | 1010.1 |
| 20260505222702 | 22 | 145 | 4.8 | 9.7 | 0.00 | 0.00 | 0.00 | 54 | 1010.1 |
| 20260505222158 | 22 | 218 | 1.6 | 3.2 | 0.00 | 0.00 | 0.00 | 54 | 1010.0 |
| 20260505221655 | 22 | 73 | 1.6 | 1.6 | 0.00 | 0.00 | 0.00 | 53 | 1009.8 |
| 20260505221152 | 22 | 196 | 0.0 | 0.0 | 0.00 | 0.00 | 0.00 | 55 | 1010.0 |
| 20260505220649 | 23 | 31 | 4.8 | 4.8 | 0.00 | 0.00 | 0.00 | 53 | 1009.7 |
| 20260505220147 | 22 | 212 | 1.6 | 1.6 | 0.00 | 0.00 | 0.00 | 53 | 1009.7 |
| 20260505215644 | 22 | 204 | 0.0 | 0.0 | 0.00 | 0.00 | 0.00 | 54 | 1010.0 |
| 20260505215142 | 23 | 231 | 0.0 | 1.6 | 0.00 | 0.00 | 0.00 | 52 | 1010.1 |
| 20260505214640 | 23 | 177 | 1.6 | 3.2 | 0.00 | 0.00 | 0.00 | 54 | 1009.9 |
| 20260505214137 | 23 | 280 | 3.2 | 4.8 | 0.00 | 0.00 | 0.00 | 53 | 1010.0 |
| 20260505213634 | 23 | 150 | 0.0 | 0.0 | 0.00 | 0.00 | 0.00 | 52 | 1010.0 |
| 20260505213131 | 23 | 202 | 0.0 | 0.0 | 0.00 | 0.00 | 0.00 | 50 | 1009.9 |
| 20260505212626 | 23 | 111 | 8.0 | 11.3 | 0.00 | 0.00 | 0.00 | 49 | 1009.9 |
| 20260505212125 | 23 | 236 | 0.0 | 0.0 | 0.00 | 0.00 | 0.00 | 50 | 1009.8 |
| 20260505211621 | 24 | 266 | 3.2 | 3.2 | 0.00 | 0.00 | 0.00 | 49 | 1009.8 |
| 20260505211119 | 24 | 235 | 4.8 | 4.8 | 0.00 | 0.00 | 0.00 | 50 | 1009.5 |
| 20260505210615 | 24 | 256 | 1.6 | 3.2 | 0.00 | 0.00 | 0.00 | 50 | 1009.7 |
| 20260505210112 | 24 | 57 | 6.4 | 9.7 | 0.00 | 0.00 | 0.00 | 48 | 1009.4 |
| 20260505205609 | 25 | 278 | 6.4 | 6.4 | 0.00 | 0.00 | 0.00 | 47 | 1009.6 |
| 20260505205107 | 25 | 6 | 4.8 | 11.3 | 0.00 | 0.00 | 0.00 | 47 | 1009.6 |
| 20260505204604 | 25 | 151 | 1.6 | 1.6 | 0.00 | 0.00 | 0.00 | 49 | 1009.5 |
| 20260505204101 | 25 | 176 | 3.2 | 4.8 | 0.00 | 0.00 | 0.00 | 50 | 1009.7 |
| 20260505203558 | 25 | 113 | 3.2 | 4.8 | 0.00 | 0.00 | 0.00 | 47 | 1009.6 |
| 20260505203055 | 24 | 297 | 3.2 | 3.2 | 0.00 | 0.00 | 0.00 | 48 | 1009.8 |
| 20260505202551 | 25 | 247 | 0.0 | 1.6 | 0.00 | 0.00 | 0.00 | 47 | 1010.0 |
| 20260505202047 | 25 | 248 | 3.2 | 4.8 | 0.00 | 0.00 | 0.00 | 46 | 1010.1 |
| 20260505201544 | 25 | 193 | 3.2 | 4.8 | 0.00 | 0.00 | 0.00 | 45 | 1010.0 |
| 20260505201042 | 25 | 316 | 3.2 | 4.8 | 0.00 | 0.00 | 0.00 | 44 | 1009.8 |
| 20260505200539 | 25 | 259 | 8.0 | 11.3 | 0.00 | 0.00 | 0.00 | 43 | 1009.7 |
| 20260505200036 | 25 | 244 | 4.8 | 4.8 | 0.00 | 0.00 | 0.00 | 43 | 1009.7 |
| 20260505195532 | 26 | 139 | 6.4 | 9.7 | 0.00 | 0.00 | 0.00 | 43 | 1009.7 |
| 20260505195030 | 26 | 290 | 3.2 | 3.2 | 0.00 | 0.00 | 0.00 | 44 | 1010.0 |
| 20260505194527 | 26 | 347 | 0.0 | 0.0 | 0.00 | 0.00 | 0.00 | 46 | 1009.9 |
| 20260505194022 | 26 | 123 | 4.8 | 9.7 | 0.00 | 0.00 | 0.00 | 45 | 1010.2 |
| 20260505193520 | 25 | 294 | 0.0 | 1.6 | 0.00 | 0.00 | 0.00 | 47 | 1010.0 |
| 20260505193017 | 26 | 235 | 1.6 | 1.6 | 0.00 | 0.00 | 0.00 | 48 | 1010.3 |
| 20260505192516 | 26 | 245 | 3.2 | 4.8 | 0.00 | 0.00 | 0.00 | 47 | 1010.1 |
| 20260505192013 | 26 | 250 | 0.0 | 0.0 | 0.00 | 0.00 | 0.00 | 47 | 1010.0 |
| 20260505191511 | 26 | 241 | 4.8 | 4.8 | 0.00 | 0.00 | 0.00 | 44 | 1010.4 |
| 20260505191008 | 25 | 259 | 3.2 | 4.8 | 0.00 | 0.00 | 0.00 | 44 | 1010.2 |
| 20260505190503 | 25 | 276 | 3.2 | 4.8 | 0.00 | 0.00 | 0.00 | 44 | 1010.2 |
| 20260505185958 | 25 | 319 | 9.7 | 12.9 | 0.00 | 0.00 | 0.00 | 43 | 1010.5 |
| 20260505185456 | 25 | 206 | 6.4 | 6.4 | 0.00 | 0.00 | 0.00 | 44 | 1010.5 |
| 20260505184952 | 26 | 275 | 3.2 | 4.8 | 0.00 | 0.00 | 0.00 | 43 | 1010.6 |
| 20260505184449 | 26 | 308 | 1.6 | 1.6 | 0.00 | 0.00 | 0.00 | 45 | 1011.0 |
| 20260505183945 | 25 | 232 | 1.6 | 3.2 | 0.00 | 0.00 | 0.00 | 46 | 1010.7 |
| 20260505183443 | 25 | 171 | 3.2 | 3.2 | 0.00 | 0.00 | 0.00 | 46 | 1011.0 |
| 20260505182939 | 25 | 87 | 4.8 | 6.4 | 0.00 | 0.00 | 0.00 | 46 | 1010.9 |
| 20260505182436 | 25 | 234 | 9.7 | 12.9 | 0.00 | 0.00 | 0.00 | 45 | 1010.9 |
| 20260505181932 | 25 | 252 | 6.4 | 6.4 | 0.00 | 0.00 | 0.00 | 48 | 1010.6 |
| 20260505181430 | 25 | 236 | 0.0 | 0.0 | 0.00 | 0.00 | 0.00 | 54 | 1011.1 |
| 20260505180927 | 25 | 259 | 3.2 | 4.8 | 0.00 | 0.00 | 0.00 | 48 | 1010.9 |
| 20260505180423 | 25 | 230 | 1.6 | 3.2 | 0.00 | 0.00 | 0.00 | 49 | 1011.2 |
| 20260505175920 | 25 | 69 | 1.6 | 6.4 | 0.00 | 0.00 | 0.00 | 50 | 1010.9 |
| 20260505175416 | 25 | 224 | 0.0 | 0.0 | 0.00 | 0.00 | 0.00 | 48 | 1011.0 |
| 20260505174912 | 24 | 261 | 1.6 | 3.2 | 0.00 | 0.00 | 0.00 | 50 | 1011.1 |
| 20260505174410 | 24 | 290 | 6.4 | 9.7 | 0.00 | 0.00 | 0.00 | 51 | 1011.2 |
| 20260505173906 | 25 | 253 | 1.6 | 1.6 | 0.00 | 0.00 | 0.00 | 49 | 1011.2 |
| 20260505173402 | 25 | 200 | 1.6 | 3.2 | 0.00 | 0.00 | 0.00 | 47 | 1011.1 |
| 20260505172859 | 24 | 242 | 0.0 | 1.6 | 0.00 | 0.00 | 0.00 | 52 | 1011.2 |
| 20260505172357 | 25 | 284 | 4.8 | 4.8 | 0.00 | 0.00 | 0.00 | 49 | 1011.6 |
| 20260505171857 | 25 | 354 | 1.6 | 6.4 | 0.00 | 0.00 | 0.00 | 49 | 1011.4 |
| 20260505171354 | 25 | 288 | 4.8 | 4.8 | 0.00 | 0.00 | 0.00 | 49 | 1011.4 |
| 20260505170850 | 24 | 105 | 6.4 | 9.7 | 0.00 | 0.00 | 0.00 | 51 | 1011.4 |
| 20260505170348 | 24 | 242 | 1.6 | 1.6 | 0.00 | 0.00 | 0.00 | 48 | 1011.5 |
| 20260505165842 | 24 | 226 | 3.2 | 4.8 | 0.00 | 0.00 | 0.00 | 50 | 1011.6 |
| 20260505165338 | 23 | 247 | 3.2 | 4.8 | 0.00 | 0.00 | 0.00 | 50 | 1011.8 |
| 20260505164834 | 23 | 220 | 1.6 | 3.2 | 0.00 | 0.00 | 0.00 | 51 | 1011.6 |
| 20260505164331 | 23 | 187 | 0.0 | 1.6 | 0.00 | 0.00 | 0.00 | 51 | 1012.0 |
| 20260505163829 | 23 | 284 | 3.2 | 4.8 | 0.00 | 0.00 | 0.00 | 51 | 1012.1 |
| 20260505163328 | 23 | 299 | 8.0 | 9.7 | 0.00 | 0.00 | 0.00 | 50 | 1012.0 |
| 20260505162826 | 23 | 63 | 1.6 | 3.2 | 0.00 | 0.00 | 0.00 | 50 | 1012.2 |
| 20260505162322 | 23 | 63 | 0.0 | 1.6 | 0.00 | 0.00 | 0.00 | 56 | 1012.4 |
| 20260505161819 | 23 | 74 | 3.2 | 6.4 | 0.00 | 0.00 | 0.00 | 51 | 1012.5 |
| 20260505161316 | 22 | 26 | 3.2 | 3.2 | 0.00 | 0.00 | 0.00 | 52 | 1012.3 |
| 20260505160814 | 23 | 288 | 3.2 | 9.7 | 0.00 | 0.00 | 0.00 | 52 | 1012.3 |
| 20260505160312 | 23 | 90 | 3.2 | 4.8 | 0.00 | 0.00 | 0.00 | 55 | 1012.3 |
| 20260505153250 | 21 | 333 | 4.8 | 6.4 | 0.00 | 0.00 | 0.00 | 57 | 1012.6 |
| 20260505152747 | 21 | 234 | 0.0 | 1.6 | 0.00 | 0.00 | 0.00 | 60 | 1012.6 |
| 20260505152244 | 21 | 248 | 3.2 | 3.2 | 0.00 | 0.00 | 0.00 | 58 | 1012.8 |
| 20260505151738 | 21 | 275 | 6.4 | 6.4 | 0.00 | 0.00 | 0.00 | 58 | 1012.8 |
| 20260505151236 | 21 | 259 | 3.2 | 4.8 | 0.00 | 0.00 | 0.00 | 60 | 1012.8 |
| 20260505150732 | 21 | 92 | 3.2 | 4.8 | 0.00 | 0.00 | 0.00 | 58 | 1012.8 |
| 20260505150230 | 21 | 267 | 3.2 | 3.2 | 0.00 | 0.00 | 0.00 | 58 | 1012.7 |
| 20260505140154 | 19 | 64 | 0.0 | 0.0 | 0.00 | 0.00 | 0.00 | 64 | 1012.9 |
| 20260505130118 | 15 | 213 | 0.0 | 0.0 | 0.00 | 0.00 | 0.00 | 75 | 1012.4 |
| 20260505124607 | 14 | 235 | 0.0 | 0.0 | 0.00 | 0.00 | 0.00 | 81 | 1012.5 |
| 20260505124103 | 13 | 293 | 0.0 | 0.0 | 0.00 | 0.00 | 0.00 | 84 | 1012.4 |
| 20260505123600 | 12 | 18 | 1.6 | 1.6 | 0.00 | 0.00 | 0.00 | 86 | 1012.7 |